TimeEST,TemperatureF,Dew PointF,Humidity,Sea Level PressureIn,VisibilityMPH,Wind Direction,Wind SpeedMPH,Gust SpeedMPH,PrecipitationIn,Events,Conditions,WindDirDegrees,DateUTC
12:53 AM,-5.1,-13.0,69,29.98,10.0,WNW,4.6,-,N/A,,Overcast,290,2014-03-03 05:53:00
1:53 AM,-5.1,-13.0,69,29.96,10.0,WNW,5.8,-,N/A,,Overcast,300,2014-03-03 06:53:00
2:53 AM,-7.1,-11.9,79,29.96,10.0,West,4.6,-,N/A,,Overcast,270,2014-03-03 07:53:00
3:49 AM,-7.6,-13.0,77,29.88,10.0,Calm,Calm,-,N/A,,Overcast,0,2014-03-03 08:49:00
3:53 AM,-7.1,-13.0,75,29.96,10.0,West,3.5,-,N/A,,Overcast,280,2014-03-03 08:53:00
4:00 AM,-8.0,-13.0,79,29.88,10.0,Calm,Calm,-,N/A,,Overcast,0,2014-03-03 09:00:00
4:50 AM,-7.6,-11.2,84,29.89,10.0,West,5.8,-,N/A,,Overcast,270,2014-03-03 09:50:00
4:53 AM,-9.0,-14.1,79,29.96,10.0,West,4.6,-,N/A,,Mostly Cloudy,260,2014-03-03 09:53:00
5:04 AM,-11.0,-15.0,83,29.88,10.0,WSW,5.8,-,N/A,,Scattered Clouds,240,2014-03-03 10:04:00
5:53 AM,-8.0,-13.0,79,29.96,10.0,West,3.5,-,N/A,,Clear,280,2014-03-03 10:53:00
6:53 AM,-9.9,-14.1,82,29.95,10.0,WSW,6.9,-,N/A,,Mostly Cloudy,250,2014-03-03 11:53:00
7:14 AM,-9.0,-14.1,79,29.87,10.0,WSW,8.1,-,N/A,,Mostly Cloudy,250,2014-03-03 12:14:00
7:53 AM,-9.0,-13.0,83,29.96,10.0,West,6.9,-,N/A,,Mostly Cloudy,280,2014-03-03 12:53:00
8:00 AM,-8.0,-13.0,79,29.88,10.0,WNW,6.9,-,N/A,,Scattered Clouds,300,2014-03-03 13:00:00
8:29 AM,-5.1,-11.0,76,29.89,9.0,West,10.4,-,N/A,,Mostly Cloudy,270,2014-03-03 13:29:00
8:53 AM,-2.9,-9.0,75,29.97,6.0,West,13.8,-,N/A,,Haze,270,2014-03-03 13:53:00
9:16 AM,-0.9,-9.0,69,29.90,10.0,West,10.4,-,N/A,,Scattered Clouds,280,2014-03-03 14:16:00
9:53 AM,1.9,-8.0,63,29.98,10.0,WNW,16.1,-,N/A,,Clear,290,2014-03-03 14:53:00
10:53 AM,1.9,-7.1,66,29.98,9.0,NW,17.3,25.3,N/A,,Overcast,320,2014-03-03 15:53:00
11:10 AM,1.9,-8.0,63,29.91,8.0,NNW,18.4,-,N/A,,Overcast,330,2014-03-03 16:10:00
11:21 AM,3.0,-9.0,57,29.90,10.0,WNW,18.4,23.0,N/A,,Overcast,300,2014-03-03 16:21:00
11:53 AM,1.9,-9.0,60,29.99,10.0,NW,19.6,-,N/A,,Overcast,320,2014-03-03 16:53:00
12:53 PM,1.9,-11.0,55,30.01,10.0,NNW,15.0,24.2,0.00,,Mostly Cloudy,340,2014-03-03 17:53:00
1:53 PM,1.9,-16.1,43,30.01,10.0,NW,16.1,27.6,N/A,,Clear,320,2014-03-03 18:53:00
2:53 PM,1.0,-17.0,43,30.04,10.0,WNW,17.3,24.2,N/A,,Clear,300,2014-03-03 19:53:00
3:53 PM,-0.0,-18.9,41,30.07,10.0,NW,16.1,21.9,N/A,,Clear,320,2014-03-03 20:53:00
4:53 PM,-0.9,-18.0,44,30.10,10.0,WNW,10.4,-,N/A,,Clear,300,2014-03-03 21:53:00
5:53 PM,-4.0,-18.9,49,30.13,10.0,Calm,Calm,-,N/A,,Clear,0,2014-03-03 22:53:00
6:53 PM,-6.0,-18.9,54,30.15,10.0,NNW,9.2,-,N/A,,Clear,330,2014-03-03 23:53:00
7:53 PM,-7.1,-18.0,59,30.15,10.0,NW,9.2,-,N/A,,Partly Cloudy,310,2014-03-04 00:53:00
8:08 PM,-7.1,-18.0,59,30.06,10.0,NW,8.1,-,N/A,,Mostly Cloudy,320,2014-03-04 01:08:00
8:29 PM,-7.1,-18.0,59,30.07,10.0,NW,5.8,-,N/A,,Scattered Clouds,310,2014-03-04 01:29:00
8:53 PM,-8.0,-18.9,59,30.16,10.0,NW,4.6,-,N/A,,Clear,320,2014-03-04 01:53:00
9:53 PM,-9.0,-18.9,62,30.17,10.0,NNW,5.8,-,N/A,,Clear,340,2014-03-04 02:53:00
10:53 PM,-7.1,-16.1,65,30.17,6.0,Calm,Calm,-,N/A,,Haze,0,2014-03-04 03:53:00
11:15 PM,-9.0,-17.0,68,30.09,10.0,Calm,Calm,-,N/A,,Scattered Clouds,0,2014-03-04 04:15:00
11:53 PM,-8.0,-15.0,71,30.17,10.0,Calm,Calm,-,N/A,,Mostly Cloudy,0,2014-03-04 04:53:00